Flight Information

DEPARTURE
MONTEREY, CA
Elevation:
256
Runways:
10L/28R - 3503x60 - ASPH-F
10R/28L - 7175x150 - ASPH-G
Active PE Departure:
28L - 28R
Current PE ATIS:
S
Altimeter:
30.08
Remarks:
V F R DEPARTURES CONTACT CLEARANCE DELIVERY, ADVISE ON COURSE HEADING, ALTITUDE, AND IF FLIGHT FOLLOWING IS REQUESTED.
ATIS:
119.25 831-375-7433
Clearance Delivery:
135.45
Ground:
120.875
Tower:
MONTEREY TOWER 118.4
DESTINATION
,
Elevation:
TPA:
1000 (est.)


6903.6 NM70° True-15° Var54° HDG

Flight Plan:
(click to file on line)

1. Type
2. Aircraft Identification
3. Aircraft Type / Special Equipment
4. True Airspeed
kts
5. Departure Airport
(ICAO code)
6. Arriving Airport
(ICAO code)
7. Cruising Altitude
ft
8. Alternate Airport
(ICAO code)
9. Route of Flight
10. Remarks


00:00:00 Departure ATIS: Destination ATIS:

Clearance Limit:
Route:
Altitude: Expect in minutes
Frequency:
Transponder: (7500 Hijack / 7600 Lost Comms / 7700 Emergency)


KMRY 211654Z 29005KT 10SM CLR 24/08 A3008 RMK AO2 SLP197 T02390078
Time: 2021-09-21T16:54:00Z
1632245249
Winds: 290 @ 5 kts
Visibility: 10.0 sm
Clouds (AGL): CLR
Temperature: 23.9 C
Dew Point: 7.8 C
Pressure: 30.079725 in Hgbr


Notes:

Data extracted from FAA Digital Chart Supplement. Effective: 0901Z Thursday, AUG 12, 2021 to 0901Z Thursday, OCT 7, 2021
Current ATIS data is provided courtisy of PilotEdge.